Location: Newark
(46.3567°N, 6.1428°E)
Time: 15:11:50
(UTC+00:00)

KAITUO 1B - Visible Passes

Search period start: 19 September 2019 00:00
Search period end: 29 September 2019 00:00
Orbit: 497 x 516 km, 97.5° (Epoch: 19 September)

Date Brightness Start Highest point End Pass type
(mag) Time Alt. Az. Time Alt. Az. Time Alt. Az.
21 Sep ? 04:49:04 10° ENE 04:50:13 11° E 04:51:21 10° ESE visible
22 Sep ? 18:20:32 10° WSW 18:22:10 12° W 18:23:49 10° WNW visible
23 Sep ? 18:01:38 10° SW 18:04:23 19° W 18:07:09 10° NW visible
26 Sep ? 04:54:14 10° ENE 04:55:59 13° E 04:57:43 10° ESE visible
27 Sep ? 18:27:06 10° WSW 18:27:57 11° W 18:28:48 10° WNW visible
28 Sep ? 18:07:40 10° SW 18:10:08 17° W 18:12:37 10° NW visible
